Regional Weather Roundup
Issued by NWS

Home | Current Version | Previous Version | Text Only | Print | Product List | Glossary Off
Versions: 1 2 3 4 5 6 7 8 9 10 11 12 13 14 15 16 17 18 19 20 21 22 23 24 25 26 27 28 29 30 31 32 33 34 35 36 37 38 39 40 41 42 43 44 45 46 47 48 49 50

000
ASUS43 KFSD 011002
RWRSD

WEATHER ROUNDUP FOR SOUTH DAKOTA
NATIONAL WEATHER SERVICE SIOUX FALLS SD
500 AM CDT MON SEP 01 2014

NOTE: "FAIR" INDICATES FEW OR NO CLOUDS BELOW 12,000 FEET WITH NO
SIGNIFICANT WEATHER AND/OR OBSTRUCTIONS TO VISIBILITY.


SDZ001>005-009-010-012>017-011100-
NORTHWEST AND NORTH CENTRAL SOUTH DAKOTA

CITY           SKY/WX    TMP DP  RH WIND       PRES   REMARKS
BUFFALO          N/A     51  47  86 W6        29.80F
FAITH            N/A     50  48  93 CALM      29.86R
MOBRIDGE       CLEAR     55  54  96 NW9       29.77R
$$

SDZ012>016-024>037-041>051-057-063-072>074-011100-
SOUTHWEST AND SOUTH CENTRAL SOUTH DAKOTA

CITY           SKY/WX    TMP DP  RH WIND       PRES   REMARKS
RAPID CTY ARPT PTCLDY    50  46  86 NW6       29.90S
PIERRE         CLEAR     55  53  93 SW6       29.80R
CUSTER         CLEAR     43  39  86 CALM      30.00R
ELLSWORTH AFB  PTCLDY    50  46  85 W6        29.89S
PHILIP         CLEAR     51  49  92 W3        29.86F
PINE RIDGE     CLEAR     48  47  96 W5        29.93S
WINNER         FAIR      57  54  89 W10       29.84R
$$

SDZ004>011-016>023-039-040-011100-
NORTHEAST SOUTH DAKOTA

CITY           SKY/WX    TMP DP  RH WIND       PRES   REMARKS
ABERDEEN       MOCLDY    57  56  96 NW3       29.73S
WATERTOWN      CLOUDY    60  59  96 NW5       29.73S
SISSETON         N/A     60  58  92 NW6       29.70S
$$

SDZ017-020-022-023-036>040-048>070-011100-
SOUTHEAST SOUTH DAKOTA

CITY           SKY/WX    TMP DP  RH WIND       PRES   REMARKS
SIOUX FALLS    CLOUDY    64  61  90 NW7       29.72R
HURON          MOCLDY    58  57  97 W6        29.74R
CHAMBERLAIN    PTCLDY    58  55  91 W6        29.80R
MITCHELL       PTCLDY    61  59  93 W6        29.76R
YANKTON        MOCLDY    63  61  94 W14       29.74R
$$

ABBREVIATIONS USED IN REMARKS
   TC - TEMPERATURE IN CELSIUS
  WCI - WIND CHILL INDEX
   HX - HEAT INDEX
  VSB - VISIBILITY



USA.gov is the U.S. government's official web portal to all federal, state and local government web resources and services.